DW0552 N. Milford MA US current weather conditions

sailwx.info

Wind from 270

Air temperature 28.9° C
Dewpoint 16.8° C

Last reported at 2020-Aug-13 17:07 UTC.
Time now 2020-Aug-13 18:06 UTC

Location: N 42°11' W 071°32'.
View on Google Maps.

See reports from other nearby stations

  
Tides and Currents Weather Stations Pressure Air Temp Water Temp Dewpoint Dewpoint Depression Visibility Wind Speed Wind Dir Waves Ship Positions
date/time (UTC)wind fromknots sea level pressurealtimeterstation pressurevisibilityair tempwater tempwave heightnotes
2020-Aug-13 17:07 270 28.9
2020-Aug-13 17:02 269 29.4
2020-Aug-13 16:57 269 29.4
2020-Aug-13 16:52 049 29.4
2020-Aug-13 16:47 220 29.4
2020-Aug-13 16:37 138 29.4
2020-Aug-13 16:27 048 29.4
2020-Aug-13 16:22 308 29.4
2020-Aug-13 16:17 288 29.4
2020-Aug-13 16:07 169 28.3
2020-Aug-13 16:02 287 28.3
2020-Aug-13 15:57 291 28.3
2020-Aug-13 15:52 291 28.3
2020-Aug-13 15:47 291 28.9
2020-Aug-13 15:37 303 28.3
2020-Aug-13 15:32 305 28.3
2020-Aug-13 15:27 281 28.9
2020-Aug-13 15:22 318 28.3
2020-Aug-13 15:17 310 28.3
2020-Aug-13 15:12 301 28.3
2020-Aug-13 15:07 232 28.3
2020-Aug-13 15:02 226 27.8
2020-Aug-13 14:57 226 27.8
2020-Aug-13 14:52 226 27.2
2020-Aug-13 14:47 225 27.2
2020-Aug-13 14:42 276 27.2
2020-Aug-13 14:37 279 27.2
2020-Aug-13 14:32 278 27.2
2020-Aug-13 14:22 273 27.2
2020-Aug-13 14:17 298 26.7
2020-Aug-13 14:02 283 26.7
2020-Aug-13 13:57 299 26.1
2020-Aug-13 13:52 236 25.6
2020-Aug-13 13:47 234 25.6
2020-Aug-13 13:42 234 25.0
2020-Aug-13 13:37 234 25.0
2020-Aug-13 13:27 234 24.4
2020-Aug-13 13:22 236 24.4
2020-Aug-13 13:17 236 23.9
2020-Aug-13 13:12 236 23.9
2020-Aug-13 13:02 235 23.3
2020-Aug-13 12:47 304 23.3
2020-Aug-13 12:42 304 23.3
2020-Aug-13 12:37 306 22.8
2020-Aug-13 12:32 306 22.8
2020-Aug-13 12:27 306 22.8
2020-Aug-13 12:12 216 22.8
2020-Aug-13 12:07 214 22.8
2020-Aug-13 12:02 278 22.2
2020-Aug-13 11:57 024 22.2
2020-Aug-13 11:47 327 22.2
2020-Aug-13 11:42 327 22.2
2020-Aug-13 11:37 349 21.7
2020-Aug-13 11:27 052 21.7
2020-Aug-13 11:07 052 21.1
2020-Aug-13 10:57 032 21.1
2020-Aug-13 10:47 032 21.1
2020-Aug-13 10:37 041 21.1
2020-Aug-13 10:32 042 21.1
2020-Aug-13 10:27 042 21.1
2020-Aug-13 10:22 057 21.1
2020-Aug-13 10:12 046 21.1
2020-Aug-13 10:07 046 21.1
2020-Aug-13 10:02 050 21.1
2020-Aug-13 09:57 051 21.1
2020-Aug-13 09:47 051 21.1
2020-Aug-13 09:42 051 21.1
2020-Aug-13 09:32 050 21.1
2020-Aug-13 09:12 050 21.1
2020-Aug-13 09:07 049 21.1
2020-Aug-13 08:47 328 21.7
2020-Aug-13 08:32 301 21.7
2020-Aug-13 08:27 301 21.7
2020-Aug-13 08:22 301 21.7
2020-Aug-13 07:57 301 21.7
2020-Aug-13 07:52 301 21.7
2020-Aug-13 07:42 240 21.7
2020-Aug-13 07:37 240 21.7
2020-Aug-13 07:27 240 22.2
2020-Aug-13 07:22 240 22.2
2020-Aug-13 07:17 240 22.2
2020-Aug-13 07:12 240 22.2
2020-Aug-13 07:07 240 22.2
2020-Aug-13 07:02 240 22.2
2020-Aug-13 06:52 240 22.2
2020-Aug-13 06:42 240 22.2
2020-Aug-13 06:37 240 22.2
2020-Aug-13 06:32 240 22.2
2020-Aug-13 06:17 240 22.2
2020-Aug-13 06:12 240 22.2
2020-Aug-13 06:07 240 22.2
2020-Aug-13 06:02 240 22.2
2020-Aug-13 05:52 240 22.8
2020-Aug-13 05:47 240 22.8
2020-Aug-13 05:42 240 22.8
2020-Aug-13 05:32 240 22.8
2020-Aug-13 05:22 240 22.8
2020-Aug-13 05:17 240 22.8
2020-Aug-13 05:07 240 22.8
2020-Aug-13 05:02 240 22.2
2020-Aug-13 04:47 240 22.2
2020-Aug-13 04:42 240 22.2
2020-Aug-13 04:37 240 22.2
2020-Aug-13 04:32 240 22.8
2020-Aug-13 04:27 240 22.8
2020-Aug-13 04:17 240 22.8
2020-Aug-13 04:12 240 22.8
2020-Aug-13 04:07 240 22.8
2020-Aug-13 03:57 240 22.8
2020-Aug-13 03:47 240 22.8
2020-Aug-13 03:42 240 22.8
2020-Aug-13 03:37 240 22.8
2020-Aug-13 03:27 240 23.3
2020-Aug-13 03:22 240 23.3
2020-Aug-13 03:17 240 23.3
2020-Aug-13 03:12 240 23.3
2020-Aug-13 03:07 240 23.3
2020-Aug-13 03:02 240 23.3
2020-Aug-13 02:57 240 23.3
2020-Aug-13 02:42 240 23.3
2020-Aug-13 02:37 240 23.9
2020-Aug-13 02:32 240 23.9
2020-Aug-13 02:27 240 23.9
2020-Aug-13 02:22 240 23.9
2020-Aug-13 02:07 240 23.9
2020-Aug-13 02:02 240 23.9
2020-Aug-13 01:57 240 24.4
2020-Aug-13 01:47 240 24.4
2020-Aug-13 01:42 240 24.4
2020-Aug-13 01:37 240 24.4
2020-Aug-13 01:32 240 24.4
2020-Aug-13 01:27 240 24.4
2020-Aug-13 01:22 240 25.0
2020-Aug-13 01:17 240 25.0
2020-Aug-13 01:12 240 25.0
2020-Aug-13 01:07 240 25.0
2020-Aug-13 00:57 240 25.0
2020-Aug-13 00:52 240 25.0
2020-Aug-13 00:47 240 25.6
2020-Aug-13 00:42 240 25.6
2020-Aug-13 00:37 240 25.6
2020-Aug-13 00:27 240 25.6
2020-Aug-13 00:17 240 26.1
2020-Aug-12 23:57 240 26.7
2020-Aug-12 23:52 240 26.7
2020-Aug-12 23:47 240 27.2
2020-Aug-12 23:42 240 27.2
2020-Aug-12 23:37 240 27.2
2020-Aug-12 23:22 240 27.8
2020-Aug-12 23:17 240 28.3
2020-Aug-12 23:12 240 28.3
2020-Aug-12 23:02 240 28.9
2020-Aug-12 22:57 239 28.9
2020-Aug-12 22:52 264 28.9
2020-Aug-12 22:42 263 29.4
2020-Aug-12 22:37 257 29.4
2020-Aug-12 22:32 211 30.0
2020-Aug-12 22:27 194 30.0
2020-Aug-12 22:22 194 30.0
2020-Aug-12 22:17 192 30.6
2020-Aug-12 22:12 275 30.6
2020-Aug-12 21:57 240 30.6
2020-Aug-12 21:52 213 30.6
2020-Aug-12 21:47 213 30.6
2020-Aug-12 21:37 180 30.6
2020-Aug-12 21:32 288 31.1
2020-Aug-12 21:07 209 31.1
2020-Aug-12 21:02 287 0 gusting 4 31.1
2020-Aug-12 20:57 126 31.1
2020-Aug-12 20:52 219 30.6
2020-Aug-12 20:47 317 30.6
2020-Aug-12 20:42 176 0 gusting 4 31.1
2020-Aug-12 20:37 236 0 gusting 2 31.7
2020-Aug-12 20:32 104 0 gusting 2 31.7
2020-Aug-12 20:27 314 31.7
2020-Aug-12 20:17 241 31.7
2020-Aug-12 20:07 213 31.1
2020-Aug-12 20:02 206 30.6
2020-Aug-12 19:47 300 31.1
2020-Aug-12 19:42 211 31.1
2020-Aug-12 19:22 253 31.1
2020-Aug-12 19:17 213 31.7
2020-Aug-12 19:12 099 31.1
2020-Aug-12 18:57 168 30.6
2020-Aug-12 18:52 281 30.6
2020-Aug-12 18:47 340 30.6
2020-Aug-12 18:42 276 30.6
2020-Aug-12 18:37 283 30.6
2020-Aug-12 18:32 258 0 gusting 5 30.6
2020-Aug-12 18:27 341 30.6
2020-Aug-12 18:22 216 30.6
2020-Aug-12 18:17 290 31.1
2020-Aug-12 18:07 319 0 gusting 4 31.1
2020-Aug-12 18:02 278 31.7
2020-Aug-12 17:57 139 31.7
2020-Aug-12 17:52 207 1 gusting 6 31.7
2020-Aug-12 17:42 156 30.6
2020-Aug-12 17:37 250 29.4
2020-Aug-12 17:32 259 29.4
2020-Aug-12 17:27 170 30.0
2020-Aug-12 17:22 201 30.6
2020-Aug-12 17:17 207 30.6
2020-Aug-12 17:07 337 30.6
2020-Aug-12 17:02 311 30.6
2020-Aug-12 16:57 278 30.6
2020-Aug-12 16:52 218 30.0
2020-Aug-12 16:47 218 30.0
2020-Aug-12 16:42 219 29.4
2020-Aug-12 16:37 219 0 gusting 2 29.4
2020-Aug-12 16:32 267 29.4
2020-Aug-12 16:27 281 29.4
2020-Aug-12 16:17 285 30.6
2020-Aug-12 16:12 317 30.6
2020-Aug-12 16:02 214 0 gusting 4 30.0
2020-Aug-12 15:57 180 30.0
2020-Aug-12 15:52 303 29.4
2020-Aug-12 15:42 233 28.9
2020-Aug-12 15:37 352 29.4
2020-Aug-12 15:27 185 28.9
2020-Aug-12 15:22 253 28.9
2020-Aug-12 15:17 025 28.3
2020-Aug-12 15:02 355 27.8
2020-Aug-12 14:57 202 27.8
2020-Aug-12 14:52 178 27.8
2020-Aug-12 14:47 340 27.8
2020-Aug-12 14:42 254 27.8
2020-Aug-12 14:37 337 27.8
2020-Aug-12 14:32 258 0 gusting 6 27.8
2020-Aug-12 14:27 042 27.2
2020-Aug-12 14:17 251 27.2
2020-Aug-12 14:12 225 26.7
2020-Aug-12 14:07 202 26.7
2020-Aug-12 14:02 279 26.7
2020-Aug-12 13:52 272 26.1
2020-Aug-12 13:47 316 26.1
2020-Aug-12 13:42 035 26.1
2020-Aug-12 13:37 315 0 gusting 2 26.1
2020-Aug-12 13:32 050 25.6
2020-Aug-12 13:27 063 25.6
2020-Aug-12 13:07 015 0 gusting 4 25.0
2020-Aug-12 13:02 213 25.0
2020-Aug-12 12:57 337 25.0
2020-Aug-12 12:52 340 25.0
2020-Aug-12 12:37 234 0 gusting 5 24.4
2020-Aug-12 12:27 255 23.9
2020-Aug-12 12:22 236 23.9
2020-Aug-12 12:17 237 23.9
2020-Aug-12 12:12 230 23.9
2020-Aug-12 11:52 348 23.3
2020-Aug-12 11:47 238 23.3
2020-Aug-12 11:37 262 23.3
2020-Aug-12 11:22 196 22.8
2020-Aug-12 11:12 185 23.3
2020-Aug-12 11:02 246 23.3
2020-Aug-12 10:57 158 23.3
2020-Aug-12 10:47 158 23.3
2020-Aug-12 10:42 227 23.3
2020-Aug-12 10:37 227 23.3
2020-Aug-12 10:32 227 23.3
2020-Aug-12 10:27 223 23.3
2020-Aug-12 10:17 223 23.3
2020-Aug-12 10:07 226 23.3
2020-Aug-12 10:02 226 23.3
2020-Aug-12 09:57 208 23.9
2020-Aug-12 09:42 185 23.9
2020-Aug-12 09:37 185 23.9
2020-Aug-12 09:22 182 23.9
2020-Aug-12 09:17 182 23.9
2020-Aug-12 09:02 186 24.4
2020-Aug-12 08:57 189 24.4
2020-Aug-12 08:47 189 24.4
2020-Aug-12 08:42 227 24.4
2020-Aug-12 08:37 227 24.4
2020-Aug-12 08:32 177 24.4
2020-Aug-12 08:27 160 24.4
2020-Aug-12 08:22 152 24.4
2020-Aug-12 08:17 207 0 gusting 2 24.4
2020-Aug-12 08:02 217 24.4
2020-Aug-12 07:57 213 24.4
2020-Aug-12 07:52 198 24.4
2020-Aug-12 07:47 156 24.4
2020-Aug-12 07:37 150 24.4
2020-Aug-12 07:32 143 24.4
2020-Aug-12 07:22 209 24.4
2020-Aug-12 07:17 211 23.9
2020-Aug-12 07:12 181 23.9
2020-Aug-12 06:52 188 23.9
2020-Aug-12 06:47 162 23.9
2020-Aug-12 06:42 210 23.9
2020-Aug-12 06:32 143 23.9
2020-Aug-12 06:27 248 23.9
2020-Aug-12 06:22 249 0 gusting 4 23.9
2020-Aug-12 06:17 173 23.9
2020-Aug-12 06:12 165 23.9
2020-Aug-12 06:02 187 23.9
2020-Aug-12 05:57 200 23.9
2020-Aug-12 05:52 142 23.9
2020-Aug-12 05:47 142 23.9
2020-Aug-12 05:42 142 23.9
2020-Aug-12 05:27 200 23.9
2020-Aug-12 05:22 098 23.9
2020-Aug-12 05:17 145 23.9
2020-Aug-12 05:12 122 0 gusting 5 23.9
2020-Aug-12 05:07 133 23.9
2020-Aug-12 05:02 182 23.9
2020-Aug-12 04:47 168 23.9
2020-Aug-12 04:42 120 23.9
2020-Aug-12 04:37 131 23.9
2020-Aug-12 04:27 134 23.9
2020-Aug-12 04:22 123 23.9
2020-Aug-12 04:07 181 23.9
2020-Aug-12 03:57 165 23.9
2020-Aug-12 03:47 172 23.9
2020-Aug-12 03:42 152 23.9
2020-Aug-12 03:32 136 23.9
2020-Aug-12 03:12 154 23.9
2020-Aug-12 03:07 154 23.9
2020-Aug-12 03:02 154 23.9
2020-Aug-12 02:57 153 23.9
2020-Aug-12 02:52 153 23.9
2020-Aug-12 02:47 189 23.9
2020-Aug-12 02:37 171 23.9
2020-Aug-12 02:32 171 24.4
2020-Aug-12 02:27 171 24.4
2020-Aug-12 02:22 170 24.4
2020-Aug-12 02:12 170 24.4
2020-Aug-12 02:02 164 24.4
2020-Aug-12 01:57 084 24.4
2020-Aug-12 01:37 124 25.0
2020-Aug-12 01:32 123 25.0
2020-Aug-12 01:27 144 25.0
2020-Aug-12 01:17 148 25.0
2020-Aug-12 01:12 142 25.0
2020-Aug-12 01:02 136 25.6
2020-Aug-12 00:57 129 25.6
2020-Aug-12 00:47 090 25.6
2020-Aug-12 00:37 109 25.6
2020-Aug-12 00:32 128 26.1
2020-Aug-12 00:27 162 26.1
2020-Aug-12 00:22 128 26.1
2020-Aug-12 00:17 126 26.1
2020-Aug-12 00:07 232 26.1
2020-Aug-12 00:02 186 26.7
2020-Aug-11 23:47 138 26.7
2020-Aug-11 23:42 136 27.2
2020-Aug-11 23:37 214 27.2
2020-Aug-11 23:32 190 27.2
2020-Aug-11 23:27 160 27.8
2020-Aug-11 23:12 153 27.8
2020-Aug-11 23:07 129 28.3
2020-Aug-11 22:57 135 28.3
2020-Aug-11 22:52 245 28.3
2020-Aug-11 22:47 168 28.9
2020-Aug-11 22:42 103 28.9
2020-Aug-11 22:37 159 28.9
2020-Aug-11 22:32 138 0 gusting 4 28.9
2020-Aug-11 22:27 086 29.4
2020-Aug-11 22:22 113 29.4
2020-Aug-11 22:17 244 29.4
2020-Aug-11 21:57 121 30.0
2020-Aug-11 21:42 146 0 gusting 6 30.6
2020-Aug-11 21:32 108 30.6
2020-Aug-11 21:27 207 30.6
2020-Aug-11 21:22 126 31.1
2020-Aug-11 21:17 171 31.1
2020-Aug-11 21:12 146 31.1
2020-Aug-11 21:07 249 0 gusting 6 31.1
2020-Aug-11 21:02 157 0 gusting 6 31.1
2020-Aug-11 20:57 151 0 gusting 4 31.1
2020-Aug-11 20:52 115 0 gusting 7 31.1
2020-Aug-11 20:37 218 0 gusting 5 31.7
2020-Aug-11 20:27 129 31.7
2020-Aug-11 20:22 111 31.7
2020-Aug-11 20:17 108 32.2
2020-Aug-11 20:12 149 0 gusting 5 32.2
2020-Aug-11 20:07 102 0 gusting 6 32.2
2020-Aug-11 20:02 046 32.8
2020-Aug-11 19:57 165 32.8
2020-Aug-11 19:52 052 0 gusting 6 32.2
2020-Aug-11 19:47 109 32.2
2020-Aug-11 19:37 129 32.2
2020-Aug-11 19:32 198 32.2
2020-Aug-11 19:27 320 0 gusting 2 32.2
2020-Aug-11 19:12 223 31.7
2020-Aug-11 19:07 165 31.1
2020-Aug-11 19:02 106 31.7
2020-Aug-11 18:57 105 31.7
2020-Aug-11 18:52 229 31.7
2020-Aug-11 18:47 198 31.7
2020-Aug-11 18:42 194 31.1
2020-Aug-11 18:32 159 31.7
2020-Aug-11 18:22 119 31.7
2020-Aug-11 18:17 178 32.2
2020-Aug-11 18:12 169 32.8
2020-Aug-11 18:07 218 0 gusting 6 32.8
2020-Aug-11 18:02 107 32.2